Location: *
(40.4270°N, 9.4940°E)
Time: 09:29:35
(UTC+02:00)

Daily predictions for brighter satellites

Satellite Brightness Start Highest point End
(mag) Time Altitude Azimuth Time Altitude Azimuth Time Altitude Azimuth
Cosmos 2360 4.2 20:34:20 10° SSW 20:40:00 74° ESE 20:45:41 10° NNE
Cosmos 2297 Rocket 4.0 20:35:06 10° NW 20:40:05 33° WSW 20:45:03 10° SSW
ALOS 3.9 20:37:47 10° SSW 20:42:06 37° W 20:46:26 10° NNW
Meteor 1-25 Rocket 4.4 20:36:30 10° S 20:42:21 86° W 20:48:12 10° N
Tiangong 1 1.5 20:45:32 10° WNW 20:48:15 48° N 20:50:56 10° ENE
Cosmos 1536 Rocket 4.4 20:47:05 10° NNE 20:50:55 30° ENE 20:54:44 10° SE
H-2A R/B 3.9 20:47:34 10° S 20:51:15 46° W 20:54:54 10° NNW
Envisat 3.2 20:49:10 10° SSE 20:54:05 53° ENE 20:59:01 10° N
ATLAS 2AS CENTAUR R/B 3.7 20:49:35 10° SSE 20:56:01 31° ESE 21:02:47 10° NE
Helios 1A 4.2 20:55:02 10° ESE 20:58:29 25° ENE 21:01:59 10° NNE
Cosmos 1812 4.3 20:57:40 10° NNW 21:01:17 38° W 21:04:52 10° SSW
NOSS 3-1 (A) 4.1 20:57:08 10° SW 21:02:49 59° NW 21:09:14 10° NNE
ERBS 3.4 21:00:49 10° WSW 21:04:12 50° NW 21:07:35 10° NE
Okean 2 Rocket 3.5 20:59:52 10° SSW 21:04:19 69° W 21:08:51 10° N
Cosmos 2322 Rocket 2.4 20:59:02 10° S 21:04:26 47° ESE 21:09:53 10° NE
Cosmos 2263 Rocket 3.1 20:59:41 10° N 21:04:47 32° ENE 21:09:02 14° ESE
NOSS 2-3 (E) 4.3 21:02:28 10° S 21:06:44 38° ESE 21:11:31 10° NE
CZ-4B DEB 4.4 21:09:01 14° E 21:09:41 15° ENE 21:11:25 10° NNE
Meteor 1-29 4.4 21:09:12 10° NE 21:11:35 18° E 21:12:09 17° ESE
Cosmos 1602 3.6 21:08:53 10° S 21:12:43 81° E 21:16:34 10° N
SL-16 R/B 2.2 21:09:23 10° S 21:14:55 58° ESE 21:20:29 10° NNE
Meteor 1-19 Rocket 4.3 21:10:42 10° N 21:16:35 72° E 21:22:21 10° SSE
S3M 4.0 21:14:47 10° N 21:21:04 79° E 21:27:24 10° S
Resurs 1-3 4.3 21:17:05 10° S 21:21:22 55° W 21:25:42 10° NNW
Cosmos 44 Rocket 3.7 21:18:11 10° NW 21:22:51 58° WSW 21:27:28 11° SSE
Cosmos 1553 Rocket 3.9 21:17:30 10° N 21:23:42 89° ENE 21:29:47 10° S
GPS 2-05 Rocket1 3.5 21:20:51 10° WSW 21:23:58 35° S 21:25:14 25° SE
GENESIS II 4.2 21:22:03 10° NNW 21:25:59 68° NE 21:28:17 23° SE
USA 186 3.1 21:22:57 10° S 21:26:08 42° W 21:29:23 10° NNW
Cosmos 1452 Rocket 4.2 21:22:23 10° SSW 21:27:35 59° WNW 21:32:49 10° NNE
Cosmos 2266 Rocket 4.0 21:23:32 10° SSE 21:29:25 56° E 21:35:17 10° NNE
Cosmos 1850 Rocket 4.1 21:25:23 10° NNW 21:30:41 64° ENE 21:34:24 20° SSE
Cosmos 1420 Rocket 4.1 21:25:53 10° SSW 21:31:03 79° WNW 21:36:16 10° NNE
Cosmos 1939 Rocket 2.9 21:32:27 12° S 21:36:11 77° WSW 21:40:09 10° NNW
Cosmos 2360 Rocket 2.7 21:33:40 10° SSE 21:38:43 35° ESE 21:43:47 10° NE
Cosmos 1980 Rocket 4.1 21:35:01 10° WSW 21:39:58 32° WNW 21:44:57 10° N
NOSS 2-3 (C) 3.7 21:35:37 10° SSW 21:40:14 76° ESE 21:45:36 10° NE
Meteor 1-5 Rocket 4.1 21:37:47 10° S 21:43:01 59° E 21:48:14 10° NNE
Cosmos 1536 2.7 21:39:18 10° S 21:43:22 84° E 21:47:27 10° N
Lacrosse 5 rocket 2.5 21:43:18 10° WNW 21:46:39 32° SW 21:48:40 20° S
Okean 1 Rocket 2.9 21:46:57 18° S 21:50:04 67° E 21:54:25 10° NNE
Resurs 01 Rocket 3.8 21:48:25 10° SSW 21:52:00 24° W 21:55:37 10° NW
Meteor 2-4 Rocket 3.8 21:47:11 10° NNW 21:52:46 81° W 21:57:27 16° S
YAOGAN 6 2.9 21:50:58 24° S 21:52:57 64° W 21:56:29 10° NNW
Helios 1B rocket 2.3 21:50:04 10° NNE 21:54:11 88° ESE 21:57:57 12° SSW
SeaSat 1 3.5 21:49:37 10° NNE 21:54:20 47° WNW 21:59:02 10° SW
Cosmos 1300 Rocket 3.8 21:51:10 10° SSW 21:55:27 69° W 21:59:46 10° N
Okean 1-7 Rocket 3.9 21:51:19 10° N 21:55:40 47° E 21:56:44 39° ESE
NOAA 11 4.2 21:53:56 27° SSE 21:57:00 70° ENE 22:02:29 10° N
SPOT 5 3.6 21:58:22 32° E 21:59:24 35° ENE 22:03:40 10° N
Cosmos 1500 4.4 22:04:34 28° ENE 22:04:34 28° ENE 22:07:02 10° NNE
DELTA 2 R/B (1) 4.5 21:58:45 10° W 22:03:49 36° SSW 22:05:41 28° S
Cosmos 1025 Rocket 3.0 22:00:16 10° N 22:04:30 61° E 22:05:18 50° SE
Lacrosse 5 1.7 22:00:11 10° SW 22:05:14 74° SE 22:10:18 10° NE
Atlas Centaur 2 3.4 21:58:15 10° WSW 22:05:18 35° S 22:07:30 29° SSE
Cosmos 220 Rocket 3.9 22:03:50 10° NNW 22:08:09 75° ENE 22:09:02 54° SE
ATLAS 3B R/B 2.9 22:07:22 10° NNW 22:13:56 52° NE 22:16:21 35° ESE
USA 245 3.9 22:18:20 50° SE 22:19:27 64° ENE 22:23:56 10° N
MetOp-A 4.1 22:21:00 41° S 22:22:59 86° WSW 22:28:23 10° NNW
Tiangong 1 2.9 22:21:02 10° WNW 22:22:25 26° WNW 22:22:25 26° WNW
ERS-1 Rocket 3.2 22:26:21 38° S 22:28:11 67° WSW 22:33:12 10° NNW
H-2A R/B 2.1 22:27:57 54° E 22:28:28 57° ENE 22:33:22 10° N
Okean 2 3.4 22:27:37 10° NNW 22:31:43 73° W 22:31:51 72° WSW
BREEZE-M (TANK) 4.4 22:18:30 10° WNW 22:32:46 48° N 22:34:55 29° ENE
Meteor 1-12 Rocket 4.2 22:36:16 56° ESE 22:36:27 56° E 22:41:57 10° NNE
Landsat 7 4.4 22:37:41 42° ENE 22:37:41 42° ENE 22:41:48 10° N
BREEZE M DEB (TANK) 2.8 22:34:56 10° SW 22:41:04 59° SW 22:41:04 59° SW
ARGOS 3.2 22:41:12 51° SSW 22:42:29 71° WSW 22:47:51 10° NNW
Cosmos 1892 Rocket 3.8 22:39:41 10° N 22:43:30 62° NNE 22:43:30 62° NNE
ATLAS 2AS CENTAUR R/B 3.4 22:38:54 10° SW 22:46:32 63° NW 22:54:37 10° NNE
Cosmos 2278 Rocket 3.8 22:43:18 10° N 22:47:27 20° NE 22:47:55 20° ENE
Cosmos 2237 4.1 22:47:19 57° SSW 22:48:33 85° ESE 22:54:17 10° NNE
Cosmos 2263 Rocket 3.3 22:43:32 10° NW 22:48:42 36° WSW 22:50:44 28° SW
Cosmos 2322 Rocket 4.3 22:43:59 10° WSW 22:48:42 26° NW 22:53:28 10° N
Nadezhda 1 Rocket 4.3 22:43:20 10° N 22:49:28 50° ENE 22:49:44 50° E
SL-08 RB Rocket 3.8 22:51:02 68° WSW 22:51:02 68° WSW 22:55:35 10° NNW
Terra 2.7 22:53:31 38° NE 22:53:31 38° NE 22:57:07 10° N
Cosmos 1302 Rocket 3.9 22:54:49 84° ENE 22:54:49 84° ENE 22:59:59 10° NNE
SL-8 R/B 4.2 22:50:53 10° NW 22:55:33 53° NNE 22:55:33 53° NNE
Cosmos 1486 Rocket 4.0 22:50:27 10° NNW 22:55:28 72° NE 22:55:28 72° NE
Cosmos 1844 Rocket 2.9 22:51:27 10° NNW 22:57:01 56° ENE 22:57:01 56° ENE
Cosmos 1544 Rocket 4.2 22:59:53 51° N 22:59:53 51° N 23:03:15 10° N
Cosmos 1975 4.0 23:00:09 39° N 23:00:09 39° N 23:02:48 10° N
Aureole 3 Rocket 4.4 22:58:18 10° N 23:06:57 75° W 23:08:41 53° SSW
Cosmos 2322 4.4 23:03:38 17° SW 23:07:55 52° WNW 23:13:27 10° NNE
Cosmos 2219 Rocket 3.3 23:11:10 32° NE 23:11:10 32° NE 23:14:20 10° NNE
SL-08 R/B 4.5 23:08:58 63° SSW 23:10:04 80° W 23:16:26 10° N
Cosmos 1455 Rocket 4.1 23:12:50 44° N 23:12:50 44° N 23:15:59 10° N
DMSP B5D2-2 4.2 23:09:30 10° NNE 23:14:15 72° N 23:14:15 72° N
COSMOS 2428 2.7 23:16:29 80° NW 23:16:29 80° NW 23:22:05 10° NNE
Cosmos 2360 Rocket 3.7 23:17:39 10° WSW 23:22:41 33° WNW 23:27:44 10° N
Cosmos 1844 4.0 23:22:32 10° NNW 23:27:25 64° N 23:27:25 64° N
SPOT 1/Viking Rocket 4.5 23:29:59 41° W 23:29:59 41° W 23:34:45 10° NNW
Cosmos 2333 Rocket 3.4 23:32:27 33° NE 23:32:27 33° NE 23:35:31 10° NNE
Cosmos 1818 4.4 23:33:44 46° NNE 23:33:44 46° NNE 23:37:34 10° NNE
Cosmos 1745 Rocket 4.4 23:42:01 53° W 23:42:25 54° W 23:48:27 10° N
NOSS 3-2 (A) 3.8 23:36:10 10° NW 23:43:47 88° ENE 23:44:10 82° SE
USA 238 DEB 4.1 23:37:22 10° NW 23:44:12 52° WSW 23:44:12 52° WSW
USA 238 4.1 23:37:28 10° NW 23:44:18 53° WSW 23:44:18 53° WSW
Lacrosse 5 3.9 23:44:27 10° W 23:48:39 25° NNW 23:52:51 10° NNE
Cosmos 2237 Rocket 3.7 23:55:06 28° NE 23:55:06 28° NE 23:57:43 10° NNE
